CW5689 Weather Reports


Display with metric or nautical units.
time (UTC)temp
F
wind
direction
speed
MPH
gust
MPH
rain 1hr
in
rain 24hr
in
rain mn
in
humidity
%
barometer
mb
20260905045018 71 5 2.0 5.0 0.00 0.00 0.00 86 1014.9
20260905045011 72 3 4.0 0.0 0.00 0.00 0.00 86 1013.9
20260905044541 71 39 2.0 5.0 0.00 0.00 0.00 86 1015.0
20260905044511 72 39 2.0 0.0 0.00 0.00 0.00 86 1014.0
20260905044024 72 75 2.0 5.0 0.00 0.00 0.00 86 1014.9
20260905044011 72 75 2.0 0.0 0.00 0.00 0.00 85 1014.0
20260905043524 72 61 2.0 7.0 0.00 0.00 0.00 86 1014.9
20260905043511 72 61 2.0 1.0 0.00 0.00 0.00 86 1013.9
20260905043042 72 65 3.0 7.0 0.00 0.00 0.00 86 1014.8
20260905043011 72 65 2.0 1.0 0.00 0.00 0.00 85 1013.8
20260905042521 72 66 2.0 6.0 0.00 0.00 0.00 86 1014.7
20260905042511 72 64 0.0 1.0 0.00 0.00 0.00 85 1013.7
20260905042021 72 57 2.0 4.0 0.00 0.00 0.00 86 1014.7
20260905042011 72 55 2.0 0.0 0.00 0.00 0.00 85 1013.7
20260905041544 72 72 2.0 4.0 0.00 0.00 0.00 86 1014.8
20260905041511 73 71 0.0 0.0 0.00 0.00 0.00 85 1013.7
20260905041020 72 124 1.0 6.0 0.00 0.00 0.00 85 1014.9
20260905041011 73 124 2.0 0.0 0.00 0.00 0.00 84 1013.8
20260905040518 73 0 1.0 6.0 0.00 0.00 0.00 84 1014.9
20260905040511 73 3 0.0 1.0 0.00 0.00 0.00 84 1013.8
20260905040038 73 0 1.0 7.0 0.00 0.00 0.00 84 1014.8
20260905040011 73 12 1.0 0.0 0.00 0.00 0.00 84 1013.8
20260905035520 73 33 2.0 7.0 0.00 0.00 0.00 84 1014.8
20260905035511 73 36 3.0 1.0 0.00 0.00 0.00 83 1013.8
20260905035023 73 334 2.0 7.0 0.00 0.00 0.00 83 1014.8
20260905035011 74 334 2.0 1.0 0.00 0.00 0.00 83 1013.8
20260905034545 73 58 2.0 6.0 0.00 0.00 0.00 83 1014.8
20260905034018 73 0 2.0 8.0 0.00 0.00 0.00 83 1014.8
20260905034011 74 60 1.0 1.0 0.00 0.00 0.00 83 1013.8
20260905033521 74 72 2.0 8.0 0.00 0.00 0.00 83 1014.7
20260905033512 74 72 3.0 1.0 0.00 0.00 0.00 83 1013.8
20260905033038 74 55 2.0 6.0 0.00 0.00 0.00 83 1014.7
20260905032519 74 64 1.0 6.0 0.00 0.00 0.00 83 1014.7
20260905032020 74 64 2.0 11.0 0.00 0.00 0.00 83 1014.6
20260905031538 74 38 2.0 11.0 0.00 0.00 0.00 83 1014.6
20260905031020 75 39 1.0 6.0 0.00 0.00 0.00 83 1014.6
20260905030520 75 60 3.0 6.0 0.00 0.00 0.00 83 1014.5
20260905030041 75 68 2.0 8.0 0.00 0.00 0.00 82 1014.5
20260905025519 75 41 3.0 8.0 0.00 0.00 0.00 82 1014.4
20260905025023 75 55 1.0 6.0 0.00 0.00 0.00 82 1014.4
20260905024543 75 56 2.0 6.0 0.00 0.00 0.00 81 1014.3
20260905024024 76 53 2.0 5.0 0.00 0.00 0.00 82 1014.3
20260905023519 76 66 1.0 5.0 0.00 0.00 0.00 82 1014.3
20260905023043 76 42 1.0 5.0 0.00 0.00 0.00 81 1014.3
20260905022520 76 68 2.0 6.0 0.00 0.00 0.00 81 1014.2
20260905022019 76 34 1.0 6.0 0.00 0.00 0.00 80 1014.1
20260905021541 77 53 1.0 6.0 0.00 0.00 0.00 79 1014.2
20260905021018 77 50 2.0 8.0 0.00 0.00 0.00 79 1014.1
20260905020522 77 339 2.0 8.0 0.00 0.00 0.00 78 1013.9
20260905020055 77 342 2.0 10.0 0.00 0.00 0.00 78 1013.9
20260905015517 77 33 2.0 10.0 0.00 0.00 0.00 78 1013.8
20260905015021 77 10 2.0 7.0 0.00 0.00 0.00 78 1013.9
20260905014539 78 15 2.0 8.0 0.00 0.00 0.00 78 1013.9
20260905014021 78 350 3.0 8.0 0.00 0.00 0.00 78 1013.8
20260905013519 78 7 2.0 8.0 0.00 0.00 0.00 78 1013.7
20260905013043 78 16 2.0 8.0 0.00 0.00 0.00 77 1013.5
20260905012519 78 43 2.0 7.0 0.00 0.00 0.00 77 1013.5
20260905012020 79 4 2.0 9.0 0.00 0.00 0.00 76 1013.5
20260905011540 79 23 3.0 9.0 0.00 0.00 0.00 76 1013.4
20260905011018 79 3 1.0 5.0 0.00 0.00 0.00 75 1013.3
20260905010518 79 350 1.0 5.0 0.00 0.00 0.00 75 1013.2
20260905010041 79 26 1.0 8.0 0.00 0.00 0.00 75 1013.1
20260905005525 80 0 0.0 8.0 0.00 0.00 0.00 74 1013.1
20260905005023 80 342 2.0 8.0 0.00 0.00 0.00 73 1013.0
20260905004606 80 11 2.0 6.0 0.00 0.00 0.00 72 1013.0
20260905004023 80 14 2.0 10.0 0.00 0.00 0.00 72 1012.9
20260905003519 81 5 1.0 10.0 0.00 0.00 0.00 72 1013.0
20260905003043 81 42 2.0 10.0 0.00 0.00 0.00 72 1012.9
20260905002524 81 32 2.0 8.0 0.00 0.00 0.00 72 1012.9
20260905002022 81 330 2.0 9.0 0.00 0.00 0.00 71 1012.9
20260905001542 82 2 2.0 9.0 0.00 0.00 0.00 71 1012.8
20260905001023 82 45 2.0 9.0 0.00 0.00 0.00 71 1012.9
20260905000520 82 28 1.0 9.0 0.00 0.00 0.00 71 1012.8
20260905000042 82 0 1.0 7.0 0.00 0.00 0.00 72 1012.8
20260904235518 82 20 2.0 8.0 0.00 0.00 0.00 72 1012.8
20260904235027 82 17 2.0 8.0 0.00 0.00 0.00 72 1012.7
20260904234538 82 19 2.0 8.0 0.00 0.00 0.00 72 1012.7
20260904234023 83 17 3.0 9.0 0.00 0.00 0.00 72 1012.7
20260904233524 83 23 2.0 9.0 0.00 0.00 0.00 72 1012.5
20260904233050 83 20 2.0 8.0 0.00 0.00 0.00 73 1012.5
20260904232525 83 359 2.0 8.0 0.00 0.00 0.00 73 1012.5
20260904232021 84 355 2.0 8.0 0.00 0.00 0.00 73 1012.5
20260904231539 84 34 3.0 10.0 0.00 0.00 0.00 73 1012.5
20260904231020 83 1 1.0 10.0 0.00 0.00 0.00 76 1012.4
20260904230522 83 355 3.0 10.0 0.00 0.00 0.00 75 1012.3
20260904230042 83 24 1.0 9.0 0.00 0.00 0.00 75 1012.3
20260904225520 83 328 4.0 9.0 0.00 0.00 0.00 76 1012.3
20260904225020 83 32 2.0 8.0 0.00 0.00 0.00 77 1012.2
20260904224540 83 316 3.0 8.0 0.00 0.00 0.00 77 1012.2
20260904224018 83 32 1.0 7.0 0.00 0.00 0.00 78 1012.1
20260904223524 83 47 2.0 6.0 0.00 0.00 0.00 78 1012.0
20260904223043 83 35 2.0 4.0 0.00 0.00 0.00 78 1012.0
20260904222522 83 40 1.0 6.0 0.00 0.00 0.00 79 1011.9
20260904222021 83 359 2.0 6.0 0.00 0.00 0.00 80 1011.9
20260904221541 83 25 2.0 4.0 0.00 0.00 0.00 80 1011.9
20260904221021 83 0 1.0 3.0 0.00 0.00 0.00 80 1011.9
20260904220520 82 0 0.0 4.0 0.00 0.00 0.00 82 1011.8
20260904220047 82 72 1.0 4.0 0.00 0.00 0.00 81 1011.7
20260904215525 82 74 1.0 4.0 0.00 0.01 0.00 82 1011.7
20260904215031 82 74 1.0 5.0 0.00 0.01 0.00 82 1011.6
20260904214543 82 74 2.0 5.0 0.00 0.01 0.00 81 1011.7
20260904214021 82 72 2.0 5.0 0.00 0.01 0.00 80 1011.7
20260904213521 82 71 1.0 10.0 0.00 0.01 0.00 82 1011.7
20260904213043 82 71 2.0 10.0 0.00 0.01 0.00 81 1011.7
20260904212519 82 67 2.0 4.0 0.00 0.01 0.00 81 1011.7
20260904212020 82 70 2.0 4.0 0.00 0.01 0.00 81 1011.7
20260904211542 83 66 2.0 5.0 0.00 0.01 0.00 80 1011.8
20260904211025 83 67 1.0 5.0 0.00 0.01 0.00 81 1011.7
20260904210520 83 66 2.0 5.0 0.00 0.01 0.00 81 1011.6
20260904210049 83 68 2.0 4.0 0.00 0.01 0.00 81 1011.7
20260904205523 83 70 2.0 5.0 0.00 0.01 0.00 81 1011.8
20260904205023 83 69 2.0 6.0 0.00 0.01 0.00 80 1011.7
20260904204541 83 57 1.0 6.0 0.00 0.01 0.00 81 1011.8
20260904204511 83 57 2.0 0.0 0.00 0.01 0.00 80 1010.9
20260904204025 83 74 2.0 4.0 0.00 0.01 0.00 80 1011.8
20260904204010 83 74 3.0 0.0 0.00 0.01 0.00 79 1010.9
20260904203523 83 70 2.0 4.0 0.00 0.01 0.00 80 1011.8
20260904203043 83 73 2.0 4.0 0.00 0.01 0.00 80 1011.8
20260904203011 84 73 1.0 0.0 0.00 0.01 0.00 80 1010.9
20260904202519 83 78 2.0 5.0 0.00 0.01 0.00 79 1011.8
20260904202021 83 49 2.0 5.0 0.00 0.01 0.00 79 1011.7
20260904202011 84 49 3.0 0.0 0.00 0.01 0.00 78 1010.9
20260904201543 83 79 2.0 4.0 0.00 0.01 0.00 78 1011.8
20260904201511 84 86 3.0 0.0 0.00 0.01 0.00 77 1010.8
20260904201021 83 37 0.0 4.0 0.00 0.01 0.00 79 1011.8
20260904201011 84 37 3.0 0.0 0.00 0.01 0.00 78 1010.9
20260904200522 84 43 1.0 4.0 0.00 0.01 0.00 80 1011.9
20260904200510 84 43 2.0 0.0 0.00 0.01 0.00 80 1011.0
20260904200041 84 40 1.0 5.0 0.00 0.01 0.00 79 1012.0
20260904200011 84 40 1.0 0.0 0.00 0.01 0.00 79 1011.0
20260904195522 84 39 1.0 5.0 0.00 0.01 0.00 79 1011.9
20260904195511 84 39 2.0 0.0 0.00 0.01 0.00 78 1011.0
20260904195017 84 26 1.0 4.0 0.00 0.01 0.00 78 1012.0
20260904194544 84 4 1.0 4.0 0.00 0.01 0.00 78 1012.0
20260904194511 85 4 1.0 0.0 0.00 0.01 0.00 78 1011.1
20260904194025 84 0 1.0 4.0 0.00 0.01 0.00 77 1012.0
20260904194011 85 45 0.0 0.0 0.00 0.01 0.00 77 1011.1
20260904193524 85 47 1.0 4.0 0.00 0.01 0.00 77 1011.9
20260904193511 85 47 1.0 0.0 0.00 0.01 0.00 76 1011.1
20260904193046 85 16 1.0 4.0 0.00 0.01 0.00 77 1012.0
20260904193010 85 16 1.0 0.0 0.00 0.01 0.00 77 1011.1
20260904192520 85 14 2.0 6.0 0.00 0.01 0.00 76 1011.9
20260904192510 85 14 3.0 1.0 0.00 0.01 0.00 76 1011.1
20260904192018 85 16 2.0 6.0 0.00 0.01 0.00 76 1012.0
20260904192010 85 16 2.0 1.0 0.00 0.01 0.00 75 1011.2
20260904191542 85 27 2.0 5.0 0.00 0.01 0.00 76 1012.1
20260904191511 86 27 4.0 0.0 0.00 0.01 0.00 76 1011.2
20260904191020 85 45 2.0 5.0 0.00 0.01 0.00 77 1012.2
20260904191011 86 45 2.0 0.0 0.00 0.01 0.00 76 1011.3
20260904190520 85 53 2.0 6.0 0.00 0.01 0.00 76 1012.2
20260904190511 86 52 2.0 1.0 0.00 0.01 0.00 76 1011.3
20260904190047 85 44 3.0 6.0 0.00 0.01 0.00 77 1012.2
20260904190011 86 44 2.0 1.0 0.00 0.01 0.00 76 1011.3
20260904185520 85 45 2.0 6.0 0.00 0.01 0.00 76 1012.2
20260904185511 86 45 1.0 1.0 0.00 0.01 0.00 75 1011.3
20260904185025 85 26 2.0 6.0 0.00 0.01 0.00 76 1012.2
20260904185010 86 25 2.0 1.0 0.00 0.01 0.00 77 1011.3
20260904184539 85 63 2.0 6.0 0.00 0.01 0.00 76 1012.2
20260904184511 85 63 3.0 1.0 0.00 0.01 0.00 76 1011.3
20260904184025 85 22 3.0 8.0 0.00 0.01 0.00 77 1012.2
20260904184010 85 16 4.0 1.0 0.00 0.01 0.00 75 1011.3
20260904183519 85 80 3.0 9.0 0.00 0.01 0.00 75 1012.2
20260904183511 85 65 3.0 1.0 0.00 0.01 0.00 75 1011.2
20260904183042 85 0 3.0 9.0 0.00 0.01 0.00 77 1012.2
20260904183011 85 18 1.0 1.0 0.00 0.01 0.00 76 1011.3
20260904182524 85 4 2.0 8.0 0.00 0.01 0.00 77 1012.2
20260904182511 85 4 1.0 1.0 0.00 0.01 0.00 76 1011.3
20260904182028 85 7 2.0 9.0 0.00 0.01 0.00 76 1012.2
20260904182011 85 3 3.0 1.0 0.00 0.01 0.00 76 1011.3
20260904181546 85 28 2.0 9.0 0.00 0.01 0.00 77 1012.1
20260904181511 86 16 3.0 1.0 0.00 0.01 0.00 76 1011.2
20260904181019 85 334 4.0 9.0 0.00 0.01 0.00 73 1012.0
20260904181011 86 23 4.0 1.0 0.00 0.01 0.00 72 1011.2
20260904180520 86 50 3.0 10.0 0.00 0.01 0.00 74 1012.1
20260904180511 86 49 5.0 1.0 0.00 0.01 0.00 74 1011.2
20260904180039 86 12 2.0 10.0 0.00 0.01 0.00 76 1012.0
20260904180010 86 12 1.0 1.0 0.00 0.01 0.00 76 1011.1
20260904175527 86 3 3.0 11.0 0.00 0.01 0.00 75 1012.0
20260904175511 86 36 4.0 1.0 0.00 0.01 0.00 75 1011.1
20260904175024 86 86 3.0 11.0 0.00 0.01 0.00 75 1012.0
20260904175011 86 264 3.0 1.0 0.00 0.01 0.00 75 1011.1
20260904174547 86 359 3.0 7.0 0.00 0.01 0.00 77 1011.7
20260904174024 86 24 3.0 9.0 0.00 0.01 0.00 75 1011.7
20260904174011 86 31 3.0 1.0 0.00 0.01 0.00 77 1010.8
20260904173519 86 31 3.0 9.0 0.00 0.01 0.00 77 1011.7
20260904173511 86 32 2.0 1.0 0.00 0.01 0.00 77 1010.7
20260904173052 86 47 2.0 8.0 0.00 0.01 0.00 79 1011.8
20260904173011 86 77 1.0 1.0 0.00 0.01 0.00 78 1010.8
20260904172518 85 28 2.0 8.0 0.00 0.01 0.00 78 1011.6
20260904172019 85 34 2.0 11.0 0.00 0.01 0.00 78 1011.7
20260904172011 86 36 2.0 1.0 0.00 0.01 0.00 78 1010.8
20260904171554 85 53 2.0 11.0 0.00 0.01 0.00 78 1011.7
20260904171511 85 53 2.0 1.0 0.00 0.01 0.00 78 1010.8
20260904171019 85 28 3.0 11.0 0.00 0.01 0.00 77 1011.7
20260904171011 85 28 4.0 1.0 0.00 0.01 0.00 76 1010.8
20260904170520 85 33 2.0 5.0 0.00 0.01 0.00 79 1011.7
20260904170042 85 70 2.0 5.0 0.00 0.01 0.00 79 1011.7
20260904170011 86 70 2.0 0.0 0.00 0.01 0.00 78 1010.7
20260904165528 86 43 2.0 4.0 0.00 0.01 0.00 78 1011.6
20260904165025 86 41 2.0 5.0 0.00 0.01 0.00 78 1011.7
20260904164542 86 43 2.0 5.0 0.00 0.01 0.00 77 1011.6
20260904164025 86 18 2.0 6.0 0.00 0.01 0.00 77 1011.7
20260904164011 87 18 4.0 0.0 0.00 0.01 0.00 76 1010.7
20260904163525 87 36 2.0 6.0 0.00 0.01 0.00 77 1011.6
20260904163511 87 35 2.0 1.0 0.00 0.01 0.00 77 1010.7
20260904163044 87 124 2.0 6.0 0.00 0.01 0.00 77 1011.5
20260904163011 87 124 3.0 1.0 0.00 0.01 0.00 76 1010.5
20260904162520 87 34 1.0 4.0 0.00 0.01 0.00 79 1011.5
20260904162511 87 35 2.0 0.0 0.00 0.01 0.00 78 1010.5
20260904162019 87 0 1.0 4.0 0.00 0.01 0.00 78 1011.5
20260904161540 87 31 2.0 3.0 0.00 0.01 0.00 77 1011.5
20260904161511 87 31 2.0 0.0 0.00 0.01 0.00 77 1010.4
20260904161020 86 20 2.0 4.0 0.00 0.01 0.00 77 1011.3
20260904161011 87 20 2.0 0.0 0.00 0.01 0.00 76 1010.3
20260904160520 86 334 1.0 4.0 0.00 0.01 0.00 79 1011.3
20260904160511 87 334 2.0 0.0 0.00 0.01 0.00 79 1010.3
20260904160038 86 331 1.0 4.0 0.00 0.01 0.00 78 1011.2
20260904160011 86 331 1.0 0.0 0.00 0.01 0.00 76 1010.2
20260904155519 86 66 1.0 4.0 0.00 0.01 0.00 77 1011.3
20260904155019 85 75 1.0 4.0 0.00 0.01 0.00 78 1011.3
20260904155011 86 75 2.0 0.0 0.00 0.01 0.00 77 1010.2
20260904154545 85 77 3.0 5.0 0.00 0.01 0.00 77 1011.2
20260904154021 85 80 2.0 5.0 0.00 0.01 0.00 77 1011.2
20260904154011 86 80 3.0 0.0 0.00 0.01 0.00 76 1010.2
20260904153524 85 25 1.0 4.0 0.00 0.01 0.00 79 1011.1
20260904153511 86 22 2.0 0.0 0.00 0.01 0.00 79 1010.1
20260904153046 85 317 2.0 4.0 0.00 0.01 0.00 76 1011.0
20260904152519 85 230 1.0 4.0 0.00 0.01 0.00 76 1010.9
20260904152511 85 230 4.0 0.0 0.00 0.01 0.00 75 1009.9
20260904152019 85 0 0.0 3.0 0.00 0.01 0.00 80 1010.8
20260904152011 85 74 0.0 0.0 0.00 0.01 0.00 79 1009.8
20260904151543 84 0 0.0 4.0 0.00 0.01 0.00 80 1010.7
20260904151511 85 73 0.0 0.0 0.00 0.01 0.00 79 1009.8
20260904151019 84 74 1.0 4.0 0.00 0.01 0.00 79 1010.7
20260904151011 84 74 0.0 0.0 0.00 0.01 0.00 79 1009.9
20260904150525 84 74 2.0 4.0 0.00 0.01 0.00 81 1010.7
20260904150511 84 74 2.0 0.0 0.00 0.01 0.00 81 1009.8
20260904150043 83 76 2.0 4.0 0.00 0.01 0.00 82 1010.7
20260904150011 84 76 2.0 0.0 0.00 0.01 0.00 81 1009.8
20260904145524 83 77 2.0 4.0 0.00 0.01 0.00 81 1010.8
20260904145511 83 77 2.0 0.0 0.00 0.01 0.00 81 1009.9
20260904145024 82 79 2.0 4.0 0.00 0.01 0.00 82 1010.7
20260904145011 83 79 3.0 0.0 0.00 0.01 0.00 81 1009.8
20260904144544 82 80 2.0 5.0 0.00 0.01 0.00 81 1010.6
20260904144511 82 80 2.0 0.0 0.00 0.01 0.00 81 1009.8
20260904144018 81 77 2.0 5.0 0.00 0.01 0.00 83 1010.7
20260904144011 82 77 3.0 0.0 0.00 0.01 0.00 82 1009.9
20260904143521 81 72 2.0 4.0 0.00 0.01 0.00 85 1010.8
20260904143511 81 72 3.0 0.0 0.00 0.01 0.00 84 1009.9
20260904143040 80 60 1.0 6.0 0.00 0.01 0.00 86 1010.7
20260904143011 81 60 3.0 1.0 0.00 0.01 0.00 85 1009.9
20260904142521 80 79 3.0 6.0 0.00 0.01 0.00 85 1010.8
20260904142511 80 79 3.0 1.0 0.00 0.01 0.00 85 1009.9
20260904142019 79 78 3.0 6.0 0.00 0.01 0.00 86 1010.8
20260904142011 80 78 3.0 1.0 0.00 0.01 0.00 86 1010.0
20260904141545 79 74 3.0 6.0 0.00 0.01 0.00 87 1010.8
20260904141511 79 74 3.0 1.0 0.00 0.01 0.00 87 1009.9
20260904141023 78 76 3.0 4.0 0.00 0.01 0.00 88 1010.8
20260904140526 78 73 2.0 4.0 0.00 0.01 0.00 89 1010.9
20260904140511 78 73 3.0 0.0 0.00 0.01 0.00 88 1010.0
20260904140046 77 69 2.0 4.0 0.00 0.01 0.00 89 1011.0
20260904140011 78 69 3.0 0.0 0.00 0.01 0.00 89 1010.1
20260904135524 77 61 1.0 3.0 0.00 0.01 0.00 90 1010.9
20260904135511 77 61 2.0 0.0 0.00 0.01 0.00 90 1010.0
20260904135024 76 0 0.0 2.0 0.00 0.01 0.00 91 1010.9
20260904135011 77 32 0.0 0.0 0.00 0.01 0.00 90 1010.0
20260904134543 76 0 0.0 0.0 0.00 0.01 0.00 92 1010.8
20260904134511 76 30 0.0 0.0 0.00 0.01 0.00 92 1010.0
20260904134025 75 0 0.0 0.0 0.00 0.01 0.00 93 1010.8
20260904133523 74 0 0.0 0.0 0.00 0.01 0.00 93 1010.8
20260904133041 74 0 0.0 0.0 0.00 0.01 0.00 94 1010.8
20260904133011 74 30 0.0 0.0 0.00 0.01 0.00 93 1010.0
20260904132525 73 0 0.0 0.0 0.00 0.01 0.00 93 1010.8
20260904132511 74 30 0.0 0.0 0.00 0.01 0.00 92 1010.0
20260904132025 73 0 0.0 0.0 0.00 0.01 0.00 93 1010.6
20260904132011 74 30 0.0 0.0 0.00 0.01 0.00 92 1009.8
20260904131555 73 0 0.0 0.0 0.00 0.01 0.00 93 1010.6
20260904131025 73 0 0.0 0.0 0.00 0.01 0.00 93 1010.4
20260904131011 73 29 0.0 0.0 0.00 0.01 0.00 92 1009.6
20260904130523 73 0 0.0 3.0 0.00 0.01 0.00 93 1010.3
20260904130511 73 29 0.0 0.0 0.00 0.01 0.00 92 1009.5
20260904130040 73 0 0.0 3.0 0.00 0.01 0.00 93 1010.3
20260904125521 72 29 1.0 3.0 0.00 0.04 0.00 93 1010.2
20260904125511 73 29 2.0 0.0 0.00 0.04 0.00 93 1009.4
20260904125023 72 0 0.0 0.0 0.00 0.04 0.00 93 1010.3
20260904125011 73 268 0.0 0.0 0.00 0.04 0.00 93 1009.5
20260904124537 72 0 0.0 0.0 0.00 0.04 0.00 93 1010.3
20260904124511 72 264 0.0 0.0 0.00 0.04 0.00 92 1009.5
20260904124024 72 0 0.0 0.0 0.00 0.04 0.00 93 1010.4
20260904124011 72 264 0.0 0.0 0.00 0.04 0.00 92 1009.5
20260904123524 72 0 0.0 0.0 0.00 0.04 0.00 93 1010.2
20260904123511 72 264 0.0 0.0 0.00 0.04 0.00 92 1009.4
20260904123040 72 0 0.0 0.0 0.00 0.04 0.00 93 1010.2
20260904123011 72 263 0.0 0.0 0.00 0.04 0.00 92 1009.4
20260904122519 72 0 0.0 0.0 0.00 0.04 0.00 93 1010.2
20260904122019 72 0 0.0 0.0 0.00 0.04 0.00 93 1010.1
20260904122011 72 263 0.0 0.0 0.00 0.04 0.00 92 1009.4
20260904121539 71 0 0.0 0.0 0.00 0.04 0.00 93 1010.2
20260904121511 72 263 0.0 0.0 0.00 0.04 0.00 92 1009.4
20260904121020 71 0 0.0 0.0 0.00 0.04 0.00 93 1010.1
20260904121011 72 263 0.0 0.0 0.00 0.04 0.00 92 1009.3
20260904120523 71 0 0.0 0.0 0.00 0.04 0.00 93 1010.1
20260904120511 72 263 0.0 0.0 0.00 0.04 0.00 92 1009.2
20260904120048 71 0 0.0 0.0 0.00 0.04 0.00 93 1010.1
20260904120011 72 263 0.0 0.0 0.00 0.04 0.00 92 1009.2
20260904115519 71 0 0.0 0.0 0.00 0.04 0.00 92 1010.0
20260904115511 72 263 0.0 0.0 0.00 0.04 0.00 92 1009.2
20260904115019 71 0 0.0 0.0 0.00 0.04 0.00 92 1010.1
20260904115011 72 263 0.0 0.0 0.00 0.04 0.00 92 1009.1
20260904114538 71 0 0.0 0.0 0.00 0.04 0.00 92 1009.9
20260904114511 72 263 0.0 0.0 0.00 0.04 0.00 92 1009.1
20260904114019 71 0 0.0 0.0 0.00 0.04 0.00 92 1010.0
20260904114011 72 261 0.0 0.0 0.00 0.04 0.00 92 1009.1
20260904113518 71 0 0.0 0.0 0.00 0.04 0.00 92 1009.9
20260904113511 72 261 0.0 0.0 0.00 0.04 0.00 91 1009.0
20260904113041 71 0 0.0 0.0 0.00 0.04 0.00 92 1009.8
20260904112519 71 0 0.0 0.0 0.00 0.04 0.00 92 1009.7
20260904112511 72 261 0.0 0.0 0.00 0.04 0.00 91 1008.9
20260904112024 71 0 0.0 0.0 0.00 0.04 0.00 92 1009.7
20260904112011 72 261 0.0 0.0 0.00 0.04 0.00 91 1008.9
20260904111543 72 0 0.0 0.0 0.00 0.04 0.00 92 1009.7
20260904111018 72 0 0.0 0.0 0.00 0.04 0.00 92 1009.6
20260904111011 72 261 0.0 0.0 0.00 0.04 0.00 92 1008.7
20260904110521 72 0 0.0 0.0 0.00 0.04 0.00 92 1009.6
20260904110511 72 261 0.0 0.0 0.00 0.04 0.00 92 1008.8
20260904110037 72 0 0.0 0.0 0.00 0.04 0.00 92 1009.7
20260904110011 72 261 0.0 0.0 0.00 0.04 0.00 92 1008.8
20260904105519 72 0 0.0 0.0 0.00 0.04 0.00 92 1009.6
20260904105511 72 261 0.0 0.0 0.00 0.04 0.00 92 1008.8
20260904105019 72 0 0.0 0.0 0.00 0.04 0.00 92 1009.6
20260904105011 72 261 0.0 0.0 0.00 0.04 0.00 92 1008.8
20260904104540 72 0 0.0 0.0 0.00 0.04 0.00 92 1009.8
20260904104511 72 261 0.0 0.0 0.00 0.04 0.00 92 1008.9
20260904104019 72 0 0.0 0.0 0.00 0.04 0.00 92 1009.7
20260904104011 72 261 0.0 0.0 0.00 0.04 0.00 92 1008.8
20260904103523 72 0 0.0 0.0 0.00 0.04 0.00 92 1009.6
20260904103511 72 261 0.0 0.0 0.00 0.04 0.00 92 1008.8
20260904103056 72 0 0.0 0.0 0.00 0.04 0.00 92 1009.9
20260904103011 72 261 0.0 0.0 0.00 0.04 0.00 92 1009.0
20260904102519 72 0 0.0 0.0 0.00 0.04 0.00 92 1009.7
20260904102511 72 261 0.0 0.0 0.00 0.04 0.00 92 1008.9
20260904102019 72 0 0.0 0.0 0.00 0.04 0.00 92 1009.8
20260904101539 72 0 0.0 0.0 0.00 0.04 0.00 92 1009.7
20260904101022 72 0 0.0 0.0 0.00 0.04 0.00 92 1009.8
20260904101011 72 188 0.0 0.0 0.00 0.04 0.00 91 1008.9
20260904100519 72 0 0.0 0.0 0.00 0.04 0.00 92 1009.7
20260904100510 72 184 0.0 0.0 0.00 0.04 0.00 91 1009.0
20260904100040 72 0 0.0 0.0 0.00 0.04 0.00 92 1009.8
20260904095519 72 0 0.0 0.0 0.00 0.04 0.00 92 1009.7
20260904095510 72 184 0.0 0.0 0.00 0.04 0.00 91 1008.8
20260904095020 72 0 0.0 0.0 0.00 0.04 0.00 91 1009.8
20260904095010 72 184 0.0 0.0 0.00 0.04 0.00 91 1008.8
20260904094540 72 0 0.0 0.0 0.00 0.04 0.00 91 1009.7
20260904094019 72 0 0.0 0.0 0.00 0.04 0.00 91 1009.7
20260904094010 72 184 0.0 0.0 0.00 0.04 0.00 91 1008.8
20260904093526 72 0 0.0 0.0 0.00 0.04 0.00 91 1009.6
20260904093510 73 184 0.0 0.0 0.00 0.04 0.00 91 1008.7
20260904093041 72 0 0.0 0.0 0.00 0.04 0.00 91 1009.5
20260904093010 73 184 0.0 0.0 0.00 0.04 0.00 91 1008.7
20260904092521 72 0 0.0 0.0 0.00 0.04 0.00 91 1009.4
20260904092510 73 184 0.0 0.0 0.00 0.04 0.00 91 1008.6
20260904092020 72 0 0.0 0.0 0.00 0.04 0.00 91 1009.3
20260904092010 73 184 0.0 0.0 0.00 0.04 0.00 91 1008.5
20260904091546 73 0 0.0 0.0 0.00 0.04 0.00 91 1009.3
20260904091510 73 184 0.0 0.0 0.00 0.04 0.00 91 1008.5
20260904091020 73 0 0.0 0.0 0.00 0.04 0.00 91 1009.3
20260904091011 73 184 0.0 0.0 0.00 0.04 0.00 90 1008.5
20260904090518 73 0 0.0 0.0 0.00 0.04 0.00 91 1009.3
20260904090510 73 184 0.0 0.0 0.00 0.04 0.00 91 1008.5
20260904090037 73 0 0.0 0.0 0.00 0.04 0.00 91 1009.2
20260904090010 73 184 0.0 0.0 0.00 0.04 0.00 91 1008.5
20260904085519 73 0 0.0 0.0 0.00 0.04 0.00 91 1009.2
20260904085510 73 184 0.0 0.0 0.00 0.04 0.00 90 1008.4
20260904085020 73 0 0.0 0.0 0.00 0.04 0.00 91 1009.1
20260904085010 73 184 0.0 0.0 0.00 0.04 0.00 91 1008.4
20260904084541 73 0 0.0 0.0 0.00 0.04 0.00 91 1009.2
20260904084510 74 184 0.0 0.0 0.00 0.04 0.00 91 1008.4
20260904084023 73 0 0.0 0.0 0.00 0.04 0.00 91 1009.2
20260904084010 74 184 0.0 0.0 0.00 0.04 0.00 91 1008.4
20260904083523 73 0 0.0 0.0 0.00 0.04 0.00 91 1009.2
20260904083510 74 184 0.0 0.0 0.00 0.04 0.00 91 1008.4
20260904083103 73 0 0.0 0.0 0.00 0.04 0.00 91 1009.2
20260904083011 74 184 0.0 0.0 0.00 0.04 0.00 91 1008.4
20260904082521 73 0 0.0 0.0 0.00 0.04 0.00 91 1009.1
20260904082511 74 184 0.0 0.0 0.00 0.04 0.00 91 1008.3
20260904082021 73 0 0.0 0.0 0.00 0.04 0.00 91 1009.1
20260904082011 74 184 0.0 0.0 0.00 0.04 0.00 90 1008.3
20260904081539 73 0 0.0 0.0 0.00 0.04 0.00 91 1009.1
20260904081511 74 184 0.0 0.0 0.00 0.04 0.00 90 1008.3
20260904081019 73 0 0.0 0.0 0.00 0.04 0.00 91 1009.1
20260904081011 74 184 0.0 0.0 0.00 0.04 0.00 90 1008.3
20260904080520 73 0 0.0 0.0 0.00 0.04 0.00 91 1009.0
20260904080510 74 184 0.0 0.0 0.00 0.04 0.00 90 1008.2
20260904080038 73 0 0.0 0.0 0.00 0.04 0.00 91 1009.0
20260904080010 74 184 0.0 0.0 0.00 0.04 0.00 90 1008.2
20260904075519 74 0 0.0 0.0 0.00 0.04 0.00 91 1009.0
20260904075510 74 184 0.0 0.0 0.00 0.04 0.00 90 1008.2
20260904075017 74 0 0.0 0.0 0.00 0.04 0.00 90 1008.9
20260904075011 74 184 0.0 0.0 0.00 0.04 0.00 90 1008.2
20260904074601 74 0 0.0 0.0 0.00 0.04 0.00 91 1009.0
20260904074511 74 184 0.0 0.0 0.00 0.04 0.00 90 1008.2
20260904074023 74 0 0.0 0.0 0.00 0.04 0.00 91 1008.9
20260904074011 74 184 0.0 0.0 0.00 0.04 0.00 90 1008.2
20260904073521 74 0 0.0 0.0 0.00 0.04 0.00 90 1009.0
20260904073510 74 184 0.0 0.0 0.00 0.04 0.00 90 1008.2
20260904073043 74 0 0.0 0.0 0.00 0.04 0.00 90 1009.0
20260904072522 74 0 0.0 0.0 0.00 0.04 0.00 90 1009.0
20260904072019 74 0 0.0 0.0 0.00 0.04 0.00 90 1009.0
20260904072010 74 184 0.0 0.0 0.00 0.04 0.00 90 1008.2
20260904071539 74 0 0.0 0.0 0.00 0.04 0.00 90 1008.9
20260904071510 74 184 0.0 0.0 0.00 0.04 0.00 89 1008.2
20260904071018 74 0 0.0 0.0 0.00 0.04 0.00 90 1009.0
20260904070520 74 0 0.0 0.0 0.00 0.04 0.00 89 1009.1
20260904070042 74 0 0.0 0.0 0.00 0.04 0.00 89 1009.1
20260904070010 75 184 0.0 0.0 0.00 0.04 0.00 89 1008.4
20260904065524 74 0 0.0 0.0 0.00 0.04 0.00 89 1009.2
20260904065510 75 184 0.0 0.0 0.00 0.04 0.00 89 1008.4
20260904065024 75 0 0.0 0.0 0.00 0.04 0.00 89 1009.2
20260904065010 75 184 0.0 0.0 0.00 0.04 0.00 89 1008.4
20260904064546 75 0 0.0 0.0 0.00 0.04 0.00 89 1009.2
20260904064510 75 184 0.0 0.0 0.00 0.04 0.00 88 1008.5
20260904064018 75 0 0.0 0.0 0.00 0.04 0.00 89 1009.2
20260904064010 75 184 0.0 0.0 0.00 0.04 0.00 88 1008.5
20260904063521 75 0 0.0 0.0 0.00 0.04 0.00 89 1009.2
20260904063510 76 184 0.0 0.0 0.00 0.04 0.00 89 1008.5
20260904063045 75 0 0.0 0.0 0.00 0.04 0.00 89 1009.3
20260904062526 75 0 0.0 0.0 0.00 0.04 0.00 89 1009.2
20260904062021 75 0 0.0 0.0 0.00 0.04 0.00 89 1009.3
20260904062010 76 184 0.0 0.0 0.00 0.04 0.00 88 1008.5
20260904061541 75 0 0.0 0.0 0.00 0.04 0.00 89 1009.3
20260904061510 76 184 0.0 0.0 0.00 0.04 0.00 88 1008.5
20260904061020 76 0 0.0 0.0 0.00 0.04 0.00 88 1009.2
20260904060519 76 0 0.0 0.0 0.00 0.04 0.00 88 1009.3
20260904060510 76 184 0.0 0.0 0.00 0.04 0.00 88 1008.6
20260904060042 76 0 0.0 0.0 0.00 0.04 0.00 88 1009.3
20260904060010 76 184 0.0 0.0 0.00 0.04 0.00 88 1008.5
20260904055519 76 0 0.0 0.0 0.00 0.04 0.00 88 1009.3
20260904055510 76 184 0.0 0.0 0.00 0.04 0.00 88 1008.4
20260904055020 76 0 0.0 0.0 0.00 0.04 0.00 88 1009.4
20260904055010 76 184 0.0 0.0 0.00 0.04 0.00 88 1008.5
20260904054541 76 0 0.0 0.0 0.00 0.04 0.00 88 1009.4
20260904054510 76 184 0.0 0.0 0.00 0.04 0.00 88 1008.6
20260904054019 76 0 0.0 0.0 0.00 0.04 0.00 88 1009.4
20260904054010 76 184 0.0 0.0 0.00 0.04 0.00 87 1008.6
20260904053519 76 0 0.0 0.0 0.00 0.04 0.00 88 1009.4
20260904053510 77 184 0.0 0.0 0.00 0.04 0.00 87 1008.6
20260904053041 76 0 0.0 0.0 0.00 0.04 0.00 88 1009.4
20260904053011 77 184 0.0 0.0 0.00 0.04 0.00 87 1008.7
20260904052521 76 0 0.0 0.0 0.00 0.04 0.00 87 1009.3
20260904052510 77 184 0.0 0.0 0.00 0.04 0.00 87 1008.6
20260904052024 76 0 0.0 0.0 0.00 0.04 0.00 87 1009.3
20260904052010 77 184 0.0 0.0 0.00 0.04 0.00 87 1008.5
20260904051539 77 0 0.0 0.0 0.00 0.04 0.00 87 1009.3
20260904051510 77 184 0.0 0.0 0.00 0.04 0.00 87 1008.5
20260904051025 77 0 0.0 0.0 0.00 0.04 0.00 87 1009.3
20260904051010 77 184 0.0 0.0 0.00 0.04 0.00 87 1008.5
20260904050520 77 0 0.0 0.0 0.00 0.04 0.00 87 1009.1
20260904050042 77 0 0.0 0.0 0.00 0.04 0.00 87 1009.1
20260904050010 77 184 0.0 0.0 0.00 0.04 0.00 87 1008.3
20260904045524 77 0 0.0 3.0 0.00 0.04 0.04 87 1009.0
20260904045510 77 184 0.0 0.0 0.00 0.04 0.04 86 1008.2